Date String (YYYY-MM-DD hh:mm:ss) UTC,Instrument flags,Ambient pressure (hPa),Sample flow (lpm),Bypass flow (lpm),Sample temperature (°C),Ambient temperature (°C),ASC tube jacket temperature (°C),LED temperature (°C),Box temperature (°C),Sample RH (%),Span deviation,Mass concentration (μg/m³),Mass concentration (μg/m³),Mass concentration (μg/m³)
DateTimeUTC,F1_M11,P_M11,Q1_M11,Q2_M11,T1_M11,T2_M11,T3_M11,T4_M11,T5_M11,U1_M11,ZSPAN_M11,X0_M11,X2_M11,X1_M11
2023-02-14 13:00:00,,0801.6,5.00,0.00,22.3,20.7,00.0,31.3,23.9,10.2,0000.0,0005.03,0001.81,0001.29
2023-02-14 13:01:00,,0801.6,5.00,0.00,22.3,20.5,00.0,31.3,23.8,10.3,0000.0,0005.56,0001.87,0001.30
2023-02-14 13:02:00,,0801.5,5.00,0.00,22.2,20.4,00.0,31.3,23.8,10.4,0000.0,0005.45,0001.90,0001.31
2023-02-14 13:03:00,,0801.5,4.99,0.00,22.2,20.3,00.0,31.2,23.7,10.5,0000.0,0005.51,0001.95,0001.32
2023-02-14 13:04:00,,0801.5,5.01,0.00,22.2,20.6,00.0,31.2,23.8,10.3,0000.0,0005.47,0001.95,0001.31
2023-02-14 13:05:00,,0801.6,4.98,0.00,22.3,21.8,00.0,31.1,24.1,10.2,0000.0,0005.43,0001.96,0001.32
2023-02-14 13:06:00,,0801.6,5.00,0.00,22.4,22.8,00.0,31.1,24.5,10.2,0000.0,0005.94,0001.97,0001.33
2023-02-14 13:07:00,,0801.6,5.02,0.00,22.5,22.7,00.0,31.2,24.5,10.0,0000.0,0005.77,0001.94,0001.33
2023-02-14 13:08:00,,0801.7,5.00,0.00,22.5,22.1,00.0,31.3,24.4,10.0,0000.0,0005.73,0001.94,0001.34
2023-02-14 13:09:00,,0801.7,4.98,0.00,22.5,21.7,00.0,31.3,24.2,10.1,0000.0,0005.80,0001.98,0001.35
2023-02-14 13:10:00,,0801.7,5.00,0.00,22.5,21.3,00.0,31.3,24.1,10.1,0000.0,0005.80,0001.98,0001.36
2023-02-14 13:11:00,,0801.7,5.00,0.00,22.4,21.1,00.0,31.3,24.0,09.9,0000.0,0005.04,0001.93,0001.36
2023-02-14 13:12:00,,0801.7,4.99,0.00,22.4,20.8,00.0,31.3,23.9,09.9,0000.0,0004.07,0001.89,0001.37
2023-02-14 13:13:00,,0801.7,5.00,0.00,22.3,20.6,00.0,31.3,23.8,09.8,0000.0,0004.13,0001.92,0001.37
2023-02-14 13:14:00,,0801.8,4.99,0.00,22.2,20.4,00.0,31.3,23.8,09.8,0000.0,0004.07,0001.91,0001.38
2023-02-14 13:15:00,,0801.7,5.01,0.00,22.2,20.3,00.0,31.3,23.7,09.7,0000.0,0003.90,0001.87,0001.39
2023-02-14 13:16:00,,0801.8,5.00,0.00,22.2,20.4,00.0,31.2,23.7,09.8,0000.0,0003.86,0001.89,0001.42
2023-02-14 13:17:00,,0801.7,5.01,0.00,22.2,21.5,00.0,31.2,24.0,09.8,0000.0,0003.50,0001.92,0001.43
2023-02-14 13:18:00,,0801.8,5.02,0.00,22.4,22.7,00.0,31.1,24.4,09.6,0000.0,0003.11,0001.94,0001.46
2023-02-14 13:19:00,,0801.8,4.99,0.00,22.5,23.7,00.0,31.2,24.7,09.6,0000.0,0003.12,0001.96,0001.47
2023-02-14 13:20:00,,0801.8,5.01,0.00,22.6,23.1,00.0,31.2,24.6,09.5,0000.0,0003.04,0001.92,0001.47
2023-02-14 13:21:00,,0801.8,5.00,0.00,22.6,22.3,00.0,31.3,24.4,09.5,0000.0,0003.04,0001.91,0001.47
2023-02-14 13:22:00,,0801.9,5.01,0.00,22.5,21.7,00.0,31.3,24.2,09.6,0000.0,0003.05,0001.91,0001.48
2023-02-14 13:23:00,,0801.9,5.00,0.00,22.4,21.2,00.0,31.3,24.0,09.4,0000.0,0003.71,0001.95,0001.48
2023-02-14 13:24:00,,0801.8,4.99,0.00,22.4,20.9,00.0,31.3,23.9,09.5,0000.0,0003.64,0001.94,0001.50
2023-02-14 13:25:00,,0801.9,5.01,0.00,22.3,20.6,00.0,31.3,23.8,09.6,0000.0,0003.66,0001.95,0001.51
2023-02-14 13:26:00,,0801.8,5.01,0.00,22.2,20.4,00.0,31.3,23.8,09.8,0000.0,0003.80,0002.00,0001.52
2023-02-14 13:27:00,,0801.8,5.00,0.00,22.2,20.2,00.0,31.3,23.7,09.7,0000.0,0003.82,0002.01,0001.51
2023-02-14 13:28:00,,0801.8,5.00,0.00,22.1,20.1,00.0,31.2,23.6,09.8,0000.0,0003.82,0002.01,0001.51
2023-02-14 13:29:00,,0801.7,5.00,0.00,22.0,19.9,00.0,31.2,23.6,10.0,0000.0,0004.26,0001.94,0001.48
2023-02-14 13:30:00,,0801.7,4.99,0.00,22.0,19.8,00.0,31.2,23.4,10.1,0000.0,0004.87,0001.93,0001.47
2023-02-14 13:31:00,,0801.8,5.00,0.00,21.9,20.0,00.0,31.1,23.5,10.0,0000.0,0005.10,0001.98,0001.48
2023-02-14 13:32:00,,0801.7,5.01,0.00,22.0,21.4,00.0,31.1,23.8,09.9,0000.0,0005.13,0001.99,0001.48
2023-02-14 13:33:00,,0801.7,5.01,0.00,22.2,22.6,00.0,31.0,24.2,09.9,0000.0,0005.12,0001.99,0001.47
2023-02-14 13:34:00,,0801.7,5.00,0.00,22.3,22.7,00.0,31.1,24.3,09.8,0000.0,0004.47,0001.97,0001.46
2023-02-14 13:35:00,,0801.7,5.00,0.00,22.3,21.9,00.0,31.1,24.1,09.9,0000.0,0004.46,0001.98,0001.45
2023-02-14 13:36:00,,0801.7,5.00,0.00,22.2,21.3,00.0,31.1,23.9,09.7,0000.0,0004.49,0001.99,0001.43
2023-02-14 13:37:00,,0801.7,4.99,0.00,22.2,20.8,00.0,31.1,23.7,09.8,0000.0,0004.54,0001.97,0001.43
2023-02-14 13:38:00,,0801.7,4.99,0.00,22.1,20.4,00.0,31.1,23.5,09.8,0000.0,0004.58,0001.97,0001.43
2023-02-14 13:39:00,,0801.7,5.00,0.00,22.0,20.1,00.0,31.1,23.5,09.9,0000.0,0004.49,0001.95,0001.43
2023-02-14 13:40:00,,0801.6,5.01,0.00,21.9,20.0,00.0,31.1,23.4,10.0,0000.0,0004.00,0001.98,0001.45
2023-02-14 13:41:00,,0801.6,5.00,0.00,21.9,19.8,00.0,31.0,23.3,09.8,0000.0,0003.42,0001.97,0001.44
2023-02-14 13:42:00,,0801.5,5.01,0.00,21.8,19.7,00.0,31.0,23.3,09.9,0000.0,0003.24,0001.93,0001.45
2023-02-14 13:43:00,,0801.5,5.01,0.00,21.8,19.7,00.0,31.0,23.3,09.8,0000.0,0003.13,0001.90,0001.44
2023-02-14 13:44:00,,0801.6,5.00,0.00,21.8,21.0,00.0,30.9,23.6,09.5,0000.0,0003.03,0001.87,0001.44
2023-02-14 13:45:00,,0801.7,4.98,0.00,22.0,22.3,00.0,30.9,23.9,09.8,0000.0,0002.98,0001.85,0001.44
2023-02-14 13:46:00,,0801.6,4.94,0.00,22.1,23.0,00.0,30.9,24.2,09.7,0000.0,0003.07,0001.84,0001.44
2023-02-14 13:47:00,,0801.6,5.02,0.00,22.2,22.4,00.0,31.0,24.1,09.7,0000.0,0003.18,0001.84,0001.44
2023-02-14 13:48:00,,0801.6,5.00,0.00,22.2,21.8,00.0,31.0,24.0,09.6,0000.0,0003.06,0001.81,0001.44
2023-02-14 13:49:00,,0801.7,5.03,0.00,22.1,21.3,00.0,31.0,23.9,09.5,0000.0,0002.96,0001.79,0001.43
2023-02-14 13:50:00,,0801.7,5.00,0.00,22.1,21.0,00.0,31.0,23.8,09.6,0000.0,0002.97,0001.79,0001.42
2023-02-14 13:51:00,,0801.7,4.99,0.00,22.1,20.7,00.0,31.0,23.8,09.8,0000.0,0002.91,0001.77,0001.40
2023-02-14 13:52:00,,0801.7,5.01,0.00,22.1,20.6,00.0,31.0,23.8,09.8,0000.0,0002.93,0001.78,0001.39
2023-02-14 13:53:00,,0801.7,5.00,0.00,22.1,20.5,00.0,31.0,23.7,09.7,0000.0,0002.85,0001.76,0001.38
2023-02-14 13:54:00,,0801.7,5.00,0.00,22.0,20.4,00.0,31.0,23.6,09.6,0000.0,0002.90,0001.77,0001.37
2023-02-14 13:55:00,,0801.7,5.01,0.00,22.0,20.2,00.0,31.0,23.6,09.4,0000.0,0003.08,0001.82,0001.37
2023-02-14 13:56:00,,0801.7,5.00,0.00,22.0,20.1,00.0,31.0,23.5,09.4,0000.0,0003.31,0001.84,0001.35
2023-02-14 13:57:00,,0801.7,5.00,0.00,21.9,20.1,00.0,31.0,23.5,09.4,0000.0,0003.66,0001.82,0001.34
2023-02-14 13:58:00,,0801.7,5.01,0.00,21.9,20.1,00.0,30.9,23.5,09.4,0000.0,0004.00,0001.77,0001.33
2023-02-14 13:59:00,,0801.7,5.00,0.00,21.9,20.1,00.0,30.9,23.6,09.4,0000.0,0003.98,0001.77,0001.33
